Cloud_Cover
100 100 14 3 0 0 0 0 0 8 100 100 100 100 100 100 100 100 100 100 100 100 100 100 100 100 100 100 59 58 86 98
100 100 6 4 0 0 0 0 0 0 58 100 100 100 100 100 100 100 100 100 100 100 100 100 100 100 100 100 100 100 100 100
5 5 5 0 0 0 0 0 0 0 0 18 92 100 100 100 100 100 100 100 100 100 100 100 100 100 100 100 100 100 100 100
0 4 39 25 14 18 2 0 0 0 0 14 84 100 74 100 100 100 100 100 100 100 100 100 100 100 100 100 100 100 100 100
0 0 13 36 19 2 8 41 0 0 0 6 46 100 100 99 100 100 100 100 100 100 100 100 100 100 100 100 100 100 100 100
98 74 71 100 100 97 2 2 15 0 2 0 30 100 100 75 100 100 100 100 100 100 100 100 100 100 100 100 100 100 100 100
100 100 89 100 100 100 94 74 34 0 0 5 40 100 100 100 100 100 100 100 100 100 100 100 100 100 100 100 100 100 100 100
100 100 93 100 100 100 100 100 98 18 1 71 83 100 100 100 100 100 100 100 100 100 100 100 100 100 100 100 100 100 100 100
100 100 100 100 100 100 100 100 100 100 75 66 100 100 100 100 100 97 100 100 100 100 100 100 100 100 100 100 100 100 100 100
100 100 100 100 100 100 100 100 100 100 100 100 100 100 100 79 100 100 100 100 100 100 91 100 100 100 100 100 100 100 100 100
100 100 100 100 100 100 100 100 100 100 100 100 100 100 100 99 100 100 100 100 100 100 100 100 100 100 100 100 100 100 100 100
100 100 100 100 100 100 100 100 100 100 100 100 100 100 100 100 100 100 100 100 100 100 100 100 100 100 100 100 100 100 100 100
100 100 100 100 100 100 100 100 100 100 100 100 100 100 100 100 100 100 100 100 100 100 100 100 100 100 100 100 100 100 100 100
100 100 100 100 100 100 100 100 100 100 100 100 100 100 100 100 100 100 100 100 100 100 100 100 100 100 100 100 100 100 100 100
100 100 100 100 100 100 100 100 100 100 100 100 100 100 100 100 100 100 100 100 100 100 100 100 100 100 100 100 100 100 100 100
100 100 100 100 100 100 100 100 100 100 100 100 100 100 100 100 100 100 100 100 100 100 100 100 100 100 100 100 100 96 94 98
100 100 100 100 100 100 100 100 100 100 100 100 100 100 100 100 100 100 100 100 100 100 100 100 100 100 100 100 100 100 100 100
100 100 100 100 100 100 100 100 100 100 100 100 100 100 100 100 100 100 100 100 100 100 100 100 100 100 100 100 100 100 100 99
100 100 100 100 100 100 100 100 100 100 100 100 100 100 100 100 100 100 100 100 100 100 100 100 100 100 100 100 100 100 100 100